Weather History for Fort Wayne, IN

Change the Weather History Date:

Sunday, January 26, 2014

  Actual Average Record
Temperature  
Mean Temperature 20 °F 25 °F  
Max Temperature 37 °F 32 °F 61 °F (1944)
Min Temperature 3 °F 17 °F -8 °F (1936)
Degree Days  
Heating Degree Days 45 40  
Month to date heating degree days 1209 1039  
Since 1 July heating degree days 3665 3367  
Cooling Degree Days 0 0  
Month to date cooling degree days 0 0  
Year to date cooling degree days 0 0  
Moisture  
Dew Point 11 °F    
Average Humidity 76    
Maximum Humidity 88    
Minimum Humidity 63    
Precipitation  
Precipitation 0.16 in 0.07 in 1.14 in (1967)
Month to date precipitation 2.51 1.92  
Year to date precipitation 2.51 1.92  
Snow  
Snow 2.00 in 0.30 in 4.70 in (1978)
Month to date snowfall 28.5 8.4  
Since 1 July snowfall 39.4 19.0  
Snow Depth 3.00 in    
Sea Level Pressure  
Sea Level Pressure 29.61 in    
Wind  
Wind Speed 15 mph (SSW)    
Max Wind Speed 35 mph    
Max Gust Speed 48 mph    
Visibility 7 miles    
Events Snow    
T = Trace of Precipitation, MM = Missing Value Source: NWS Daily Summary

Daily Weather History Graph

Daily Weather History Graph

Search for Another Location

Airport:

Trip Planner

Search our weather history database for the weather conditions in past years. The results will help you decide how hot, cold, wet, or windy it might be!

Date:

Astronomy

Jan. 26, 2014 Rise Set
Actual Time 7:56 AM EST 5:50 PM EST
Civil Twilight 7:27 AM EST 6:19 PM EST
Nautical Twilight 6:53 AM EST 6:53 PM EST
Astronomical Twilight 6:21 AM EST 7:25 PM EST
Moon 3:33 AM EST (1/26) 1:39 PM EST (1/26)
Length of Visible Light 10h 52m
Length of Day
9h 53m
Waning Crescent, 24% of the Moon is Illuminated
Jan 26
Waning Crescent
Jan 30
New
Feb 6
First Quarter
Feb 14
Full
Feb 22
Last Quarter

Hourly Weather History & Observations

Time (EST) Temp. Windchill Dew Point Humidity Pressure Visibility Wind Dir Wind Speed Gust Speed Precip Events Conditions
12:54 AM 3.9 °F -9.4 °F -4.0 °F 70% 29.87 in 10.0 mi WSW 8.1 mph - N/A   Scattered Clouds
1:54 AM 3.0 °F -10.5 °F -4.0 °F 73% 29.86 in 10.0 mi SW 8.1 mph - N/A   Scattered Clouds
2:54 AM 3.9 °F -10.4 °F -2.9 °F 73% 29.85 in 10.0 mi SW 9.2 mph - N/A   Scattered Clouds
3:54 AM 3.9 °F -10.4 °F -2.9 °F 73% 29.81 in 10.0 mi SSW 9.2 mph - N/A   Mostly Cloudy
4:54 AM 5.0 °F -10.8 °F -2.0 °F 73% 29.78 in 10.0 mi SSW 11.5 mph - N/A   Overcast
5:54 AM 7.0 °F -6.6 °F -2.0 °F 67% 29.78 in 10.0 mi SSW 9.2 mph - N/A   Overcast
6:13 AM 6.8 °F -6.9 °F -0.4 °F 72% 29.71 in 1.8 mi SSW 9.2 mph - 0.00 in Snow Light Snow
6:30 AM 6.8 °F -6.9 °F 1.4 °F 79% 29.70 in 0.8 mi South 9.2 mph - 0.02 in Snow Light Snow
6:38 AM 6.8 °F -6.9 °F 1.4 °F 79% 29.69 in 0.8 mi South 9.2 mph - 0.03 in Snow Light Snow
6:54 AM 6.1 °F -7.8 °F 1.9 °F 83% 29.73 in 0.8 mi South 9.2 mph - 0.05 in Snow Light Snow
7:27 AM 6.8 °F -7.8 °F 3.2 °F 85% 29.65 in 1.0 mi SSE 10.4 mph - 0.05 in Snow Light Snow
7:54 AM 7.0 °F -9.1 °F 3.9 °F 87% 29.68 in 1.0 mi SSE 12.7 mph - 0.07 in Snow Light Snow
8:09 AM 8.6 °F -7.7 °F 3.2 °F 79% 29.62 in 1.0 mi SSE 13.8 mph - 0.01 in Snow Light Snow
8:23 AM 8.6 °F -6.3 °F 3.2 °F 79% 29.61 in 0.8 mi SSE 11.5 mph - 0.02 in Snow Light Snow
8:33 AM 8.6 °F -7.0 °F 5.0 °F 85% 29.62 in 0.8 mi South 12.7 mph - 0.02 in Snow Light Snow
8:49 AM 8.6 °F -7.7 °F 5.0 °F 85% 29.61 in 1.0 mi South 13.8 mph - 0.04 in Snow Light Snow
8:54 AM 9.0 °F -6.6 °F 5.0 °F 84% 29.66 in 1.2 mi South 12.7 mph - 0.04 in Snow Light Snow
9:06 AM 8.6 °F -8.9 °F 6.8 °F 92% 29.62 in 2.0 mi South 16.1 mph - 0.00 in Snow Light Snow
9:13 AM 10.4 °F -5.4 °F 6.8 °F 85% 29.62 in 5.0 mi South 13.8 mph - 0.00 in Snow Light Snow
9:26 AM 10.4 °F -7.2 °F 6.8 °F 85% 29.60 in 5.0 mi South 17.3 mph - 0.00 in Snow Light Snow
9:54 AM 10.9 °F -4.1 °F 7.0 °F 84% 29.64 in 7.0 mi South 12.7 mph - 0.00 in Snow Light Snow
10:45 AM 12.2 °F -3.7 °F 8.6 °F 85% 29.56 in 10.0 mi South 15.0 mph - 0.00 in   Overcast
10:54 AM 12.9 °F -3.4 °F 8.1 °F 81% 29.60 in 10.0 mi South 16.1 mph - 0.00 in   Overcast
11:22 AM 15.8 °F 0.3 °F 8.6 °F 73% 29.52 in 10.0 mi South 16.1 mph - N/A   Overcast
11:54 AM 17.1 °F 3.6 °F 10.0 °F 74% 29.54 in 10.0 mi South 12.7 mph - N/A   Overcast
12:54 PM 21.9 °F 8.7 °F 12.9 °F 68% 29.49 in 10.0 mi SSW 15.0 mph - N/A   Overcast
1:19 PM 24.8 °F 10.7 °F 15.8 °F 69% 29.45 in 10.0 mi SW 19.6 mph - N/A   Overcast
1:54 PM 28.0 °F 14.9 °F 18.0 °F 66% 29.47 in 10.0 mi SW 19.6 mph - N/A   Overcast
2:54 PM 32.0 °F 18.1 °F 26.1 °F 79% 29.46 in 9.0 mi West 27.6 mph 34.5 mph N/A   Overcast
3:54 PM 33.1 °F 20.3 °F 27.0 °F 78% 29.47 in 6.0 mi West 24.2 mph 36.8 mph N/A Snow Blowing Snow
4:54 PM 30.9 °F 16.7 °F 25.0 °F 79% 29.51 in 6.0 mi West 27.6 mph 36.8 mph N/A Snow Blowing Snow
5:32 PM 30.2 °F 17.4 °F 24.8 °F 80% 29.49 in 9.0 mi West 20.7 mph - N/A   Mostly Cloudy
5:54 PM 30.0 °F 17.5 °F 24.1 °F 79% 29.54 in 10.0 mi West 19.6 mph - N/A   Mostly Cloudy
6:54 PM 30.9 °F 21.2 °F 23.0 °F 72% 29.55 in 10.0 mi WSW 12.7 mph - N/A   Mostly Cloudy
7:54 PM 30.0 °F 22.4 °F 24.1 °F 79% 29.55 in 10.0 mi WSW 8.1 mph - N/A   Mostly Cloudy
8:05 PM 30.2 °F 24.3 °F 24.8 °F 80% 29.51 in 10.0 mi WSW 5.8 mph - N/A   Mostly Cloudy
8:32 PM 28.4 °F 23.3 °F 24.8 °F 86% 29.49 in 10.0 mi SSW 4.6 mph - N/A   Overcast
8:54 PM 28.9 °F 20.4 °F 25.0 °F 85% 29.50 in 10.0 mi SSW 9.2 mph - N/A   Mostly Cloudy
9:54 PM 33.1 °F 23.9 °F 28.0 °F 82% 29.46 in 10.0 mi SW 12.7 mph - N/A   Overcast
10:54 PM 30.9 °F 20.2 °F 27.0 °F 85% 29.51 in 7.0 mi WNW 15.0 mph 24.2 mph 0.00 in Snow Light Snow
11:30 PM 26.6 °F 12.0 °F 19.4 °F 74% 29.53 in 1.0 mi WNW 23.0 mph 38.0 mph 0.00 in Snow Light Snow
11:54 PM 24.1 °F 7.1 °F 18.0 °F 77% 29.58 in 1.2 mi WNW 28.8 mph 39.1 mph 0.00 in Snow Light Snow